Simultaneous Nadir Overpasses (SNOs) Predictions

Prediction of SNOs between LANDSAT-8 and METOP-B Satellite Orbit:

Table of predicted SNOs for the next 14.0 days since TLE Epoch: 2/5/2022
Index Date (LANDSAT-8) Time (LANDSAT-8) Lat,Lon (LANDSAT-8) SZA (LANDSAT-8 ) Date (METOP-B) Time (METOP-B) Lat,Lon (METOP-B) SZA (METOP-B ) Distance(km) Time Diff (sec)
1 02/06/2022 01:51:37 81.15,-167.80 98.46 02/06/2022 01:50:48 81.14,-167.88 98.43 1.53 49
2 02/06/2022 02:41:03 -81.17, 0.11 81.52 02/06/2022 02:41:27 -81.17, 0.25 81.49 2.39 24
3 02/08/2022 21:25:52 81.14,-101.56 97.55 02/08/2022 21:25:10 81.14,-101.47 97.55 1.72 42
4 02/08/2022 22:15:18 -81.16, 66.37 82.42 02/08/2022 22:15:50 -81.16, 66.32 82.41 1.03 32
5 02/11/2022 17:00:05 81.14, -35.06 96.65 02/11/2022 16:59:31 81.14, -35.10 96.63 0.71 34
6 02/11/2022 17:49:31 -81.16, 132.90 83.33 02/11/2022 17:50:11 -81.16, 132.72 83.33 2.97 40
7 02/14/2022 12:34:19 81.14, 31.34 95.70 02/14/2022 12:33:53 81.14, 31.23 95.68 1.80 26
8 02/14/2022 13:23:44 -81.18,-160.32 84.22 02/14/2022 13:24:31 -81.18,-160.16 84.19 2.77 47
9 02/17/2022 08:08:32 81.15, 97.99 94.76 02/17/2022 08:08:14 81.15, 97.90 94.75 1.57 18



Historial Predications of SNOs between LANDSAT-8 and METOP-B
